When you browse on this site, cookies collect data to enhance your experience and personalize the content and advertising you see.
Visit our Privacy Policy to learn more. By continuing to use the site, you agree to this use of cookies and data.
  • In United Kingdom
  • List of Countries
  • For 7 days
  • Water Temperature
  • Weather Map
  • Weather Widgets
  • user-avatar
    Login

    Hourly Weather Vitebsk

    Today, 20 September, Friday

    Time Temperature Precipitation Wind Pressure Humidity
    00:00 +4°C° 0 mm 1 mps 745 mmHg 92%
    01:00 +4°C° 0 mm 1 mps 745 mmHg 93%
    02:00 +3°C° 0 mm 1 mps 745 mmHg 93%
    03:00 +3°C° 0 mm 1 mps 745 mmHg 93%
    04:00 +3°C° 0 mm 1 mps 745 mmHg 93%
    05:00 +3°C° 0 mm 1 mps 745 mmHg 93%
    06:00 +4°C° 0 mm 1 mps 745 mmHg 90%
    07:00 +5°C° 0 mm 1 mps 745 mmHg 88%
    08:00 +6°C° 0 mm 1 mps 745 mmHg 85%
    09:00 +7°C° 0.1 mm 1 mps 746 mmHg 81%
    10:00 +7°C° 0.1 mm 2 mps 746 mmHg 77%
    11:00 +8°C° 0.1 mm 2 mps 746 mmHg 73%
    12:00 +8°C° 0.2 mm 3 mps 746 mmHg 71%
    13:00 +9°C° 0.2 mm 3 mps 746 mmHg 69%
    14:00 +9°C° 0.2 mm 3 mps 746 mmHg 67%
    15:00 +8°C° 0.3 mm 3 mps 746 mmHg 72%
    16:00 +8°C° 0.3 mm 3 mps 746 mmHg 76%
    17:00 +7°C° 0.3 mm 3 mps 747 mmHg 81%
    18:00 +5°C° 0 mm 3 mps 747 mmHg 84%
    19:00 +4°C° 0 mm 3 mps 747 mmHg 87%
    20:00 +3°C° 0 mm 2 mps 748 mmHg 91%
    21:00 +3°C° 0 mm 2 mps 748 mmHg 90%
    22:00 +2°C° 0 mm 2 mps 748 mmHg 90%
    23:00 +2°C° 0 mm 2 mps 748 mmHg 90%

    Tomorrow, 21 September, Saturday

    Time Temperature Precipitation Wind Pressure Humidity
    00:00 +2°C° 0 mm 2 mps 748 mmHg 90%
    01:00 +1°C° 0 mm 2 mps 748 mmHg 90%
    02:00 +1°C° 0 mm 2 mps 748 mmHg 90%
    03:00 +1°C° 0 mm 2 mps 748 mmHg 90%
    04:00 +1°C° 0 mm 2 mps 747 mmHg 90%
    05:00 +1°C° 0 mm 2 mps 747 mmHg 90%
    06:00 +2°C° 0 mm 2 mps 747 mmHg 88%
    07:00 +2°C° 0 mm 3 mps 747 mmHg 86%
    08:00 +4°C° 0 mm 3 mps 747 mmHg 85%
    09:00 +5°C° 0 mm 4 mps 747 mmHg 80%
    10:00 +6°C° 0 mm 4 mps 746 mmHg 76%
    11:00 +8°C° 0 mm 4 mps 746 mmHg 72%
    12:00 +7°C° 0 mm 4 mps 746 mmHg 76%
    13:00 +6°C° 0 mm 4 mps 745 mmHg 80%
    14:00 +6°C° 0 mm 4 mps 745 mmHg 85%
    15:00 +5°C° 0.1 mm 4 mps 745 mmHg 87%
    16:00 +5°C° 0.1 mm 4 mps 744 mmHg 90%
    17:00 +5°C° 0.1 mm 4 mps 744 mmHg 93%
    18:00 +5°C° 0.1 mm 4 mps 743 mmHg 94%
    19:00 +5°C° 0.1 mm 3 mps 743 mmHg 96%
    20:00 +7°C° 0.1 mm 3 mps 742 mmHg 97%
    21:00 +8°C° 0.5 mm 3 mps 742 mmHg 97%
    22:00 +8°C° 0.5 mm 4 mps 741 mmHg 97%
    23:00 +10°C° 0.5 mm 4 mps 741 mmHg 97%

    Day after tomorrow, 22 September, Sunday

    Time Temperature Precipitation Wind Pressure Humidity
    00:00 +9°C° 0.3 mm 5 mps 741 mmHg 95%
    01:00 +9°C° 0.3 mm 6 mps 740 mmHg 94%
    02:00 +10°C° 0.3 mm 6 mps 740 mmHg 93%
    03:00 +9°C° 0.1 mm 6 mps 740 mmHg 92%
    04:00 +9°C° 0.1 mm 6 mps 740 mmHg 92%
    05:00 +9°C° 0.1 mm 6 mps 740 mmHg 92%
    06:00 +9°C° 0.2 mm 6 mps 741 mmHg 91%
    07:00 +9°C° 0.2 mm 6 mps 741 mmHg 90%
    08:00 +9°C° 0.2 mm 6 mps 741 mmHg 89%
    09:00 +9°C° 0.1 mm 6 mps 741 mmHg 86%
    10:00 +9°C° 0.1 mm 6 mps 741 mmHg 82%
    11:00 +9°C° 0.1 mm 6 mps 741 mmHg 79%
    12:00 +9°C° 0.1 mm 7 mps 742 mmHg 74%
    13:00 +9°C° 0.1 mm 7 mps 742 mmHg 69%
    14:00 +10°C° 0.1 mm 8 mps 743 mmHg 65%
    15:00 +9°C° 0 mm 7 mps 743 mmHg 66%
    16:00 +8°C° 0 mm 6 mps 744 mmHg 67%
    17:00 +7°C° 0 mm 5 mps 744 mmHg 69%
    18:00 +6°C° 0 mm 4 mps 745 mmHg 71%
    19:00 +5°C° 0 mm 4 mps 745 mmHg 73%
    20:00 +4°C° 0 mm 4 mps 746 mmHg 76%
    21:00 +3°C° 0 mm 3 mps 747 mmHg 80%
    22:00 +2°C° 0 mm 3 mps 747 mmHg 85%
    23:00 +2°C° 0 mm 2 mps 747 mmHg 89%

    23 September, Monday

    Time Temperature Precipitation Wind Pressure Humidity
    00:00 +2°C° 0 mm 2 mps 748 mmHg 91%
    01:00 +1°C° 0 mm 2 mps 748 mmHg 93%
    02:00 +1°C° 0 mm 2 mps 749 mmHg 95%
    03:00 +2°C° 0 mm 1 mps 749 mmHg 94%
    04:00 +1°C° 0 mm 1 mps 749 mmHg 94%
    05:00 +1°C° 0 mm 1 mps 749 mmHg 94%
    06:00 +2°C° 0 mm 1 mps 749 mmHg 88%
    07:00 +3°C° 0 mm 1 mps 749 mmHg 82%
    08:00 +5°C° 0 mm 1 mps 750 mmHg 76%
    09:00 +6°C° 0 mm 1 mps 750 mmHg 68%
    10:00 +8°C° 0 mm 1 mps 750 mmHg 61%
    11:00 +9°C° 0 mm 1 mps 750 mmHg 53%
    12:00 +10°C° 0 mm 1 mps 749 mmHg 51%
    13:00 +10°C° 0 mm 1 mps 749 mmHg 48%
    14:00 +10°C° 0 mm 1 mps 749 mmHg 46%
    15:00 +10°C° 0 mm 1 mps 748 mmHg 51%
    16:00 +9°C° 0 mm 1 mps 748 mmHg 56%
    17:00 +8°C° 0 mm 1 mps 748 mmHg 61%
    18:00 +7°C° 0 mm 1 mps 748 mmHg 62%
    19:00 +6°C° 0 mm 1 mps 748 mmHg 64%
    20:00 +5°C° 0 mm 1 mps 748 mmHg 66%
    21:00 +5°C° 0 mm 1 mps 748 mmHg 66%
    22:00 +5°C° 0 mm 1 mps 748 mmHg 67%
    23:00 +5°C° 0 mm 1 mps 748 mmHg 67%

    24 September, Tuesday

    Time Temperature Precipitation Wind Pressure Humidity
    00:00 +5°C° 0 mm 1 mps 748 mmHg 68%
    01:00 +5°C° 0 mm 1 mps 748 mmHg 70%
    02:00 +4°C° 0 mm 1 mps 748 mmHg 71%
    03:00 +4°C° 0 mm 1 mps 748 mmHg 74%
    04:00 +3°C° 0 mm 1 mps 748 mmHg 77%
    05:00 +2°C° 0 mm 1 mps 748 mmHg 80%
    06:00 +3°C° 0 mm 1 mps 748 mmHg 77%
    07:00 +4°C° 0 mm 1 mps 748 mmHg 74%
    08:00 +5°C° 0 mm 1 mps 748 mmHg 70%
    09:00 +6°C° 0 mm 2 mps 748 mmHg 65%
    10:00 +7°C° 0 mm 2 mps 749 mmHg 60%
    11:00 +8°C° 0 mm 2 mps 749 mmHg 55%
    12:00 +9°C° 0 mm 2 mps 749 mmHg 53%
    13:00 +9°C° 0 mm 2 mps 748 mmHg 51%
    14:00 +9°C° 0 mm 2 mps 748 mmHg 49%
    15:00 +10°C° 0 mm 1 mps 748 mmHg 53%
    16:00 +9°C° 0 mm 1 mps 748 mmHg 58%
    17:00 +8°C° 0 mm 1 mps 748 mmHg 63%
    18:00 +7°C° 0 mm 1 mps 748 mmHg 67%
    19:00 +5°C° 0 mm 1 mps 748 mmHg 70%
    20:00 +4°C° 0 mm 1 mps 748 mmHg 73%
    21:00 +3°C° 0 mm 1 mps 749 mmHg 75%
    22:00 +3°C° 0 mm 1 mps 749 mmHg 77%
    23:00 +3°C° 0 mm 1 mps 749 mmHg 78%

    25 September, Wednesday

    Time Temperature Precipitation Wind Pressure Humidity
    00:00 +2°C° 0 mm 1 mps 749 mmHg 79%
    01:00 +2°C° 0 mm 1 mps 749 mmHg 81%
    02:00 0°C° 0 mm 0 mps 749 mmHg 82%
    03:00 0°C° 0 mm 0 mps 749 mmHg 83%
    04:00 0°C° 0 mm 0 mps 749 mmHg 84%
    05:00 0°C° 0 mm 0 mps 749 mmHg 85%
    06:00 +1°C° 0 mm 0 mps 749 mmHg 79%
    07:00 +4°C° 0 mm 1 mps 749 mmHg 74%
    08:00 +5°C° 0 mm 1 mps 749 mmHg 68%
    09:00 +6°C° 0 mm 1 mps 749 mmHg 63%
    10:00 +8°C° 0 mm 1 mps 749 mmHg 58%
    11:00 +10°C° 0 mm 1 mps 749 mmHg 53%
    12:00 +10°C° 0 mm 1 mps 749 mmHg 52%
    13:00 +10°C° 0 mm 1 mps 748 mmHg 51%
    14:00 +10°C° 0 mm 1 mps 748 mmHg 49%
    15:00 +10°C° 0 mm 1 mps 748 mmHg 54%
    16:00 +9°C° 0 mm 1 mps 748 mmHg 59%
    17:00 +8°C° 0 mm 1 mps 748 mmHg 64%
    18:00 +7°C° 0 mm 1 mps 748 mmHg 65%
    19:00 +6°C° 0 mm 1 mps 748 mmHg 67%
    20:00 +4°C° 0 mm 2 mps 748 mmHg 69%
    21:00 +4°C° 0 mm 2 mps 748 mmHg 70%
    22:00 +4°C° 0 mm 2 mps 748 mmHg 71%
    23:00 +4°C° 0 mm 2 mps 748 mmHg 72%
    Show more